| time (UTC) | temp F | wind direction | speed MPH | gust MPH | rain 1hr in | rain 24hr in | rain mn in | humidity % | barometer mb |
| 20260502130740 | 55 | 305 | 2.0 | 2.0 | 0.00 | 0.00 | 0.00 | 62 | 1017.8 |
| 20260502130237 | 55 | 342 | 5.0 | 5.0 | 0.00 | 0.00 | 0.00 | 64 | 1017.8 |
| 20260502123723 | 54 | 283 | 1.0 | 1.0 | 0.00 | 0.00 | 0.00 | 64 | 1017.8 |
| 20260502123220 | 54 | 294 | 1.0 | 1.0 | 0.00 | 0.00 | 0.00 | 62 | 1017.7 |
| 20260502122717 | 54 | 333 | 3.0 | 3.0 | 0.00 | 0.00 | 0.00 | 66 | 1017.7 |
| 20260502122213 | 54 | 301 | 2.0 | 2.0 | 0.00 | 0.00 | 0.00 | 66 | 1017.5 |
| 20260502121711 | 54 | 318 | 1.0 | 2.0 | 0.00 | 0.00 | 0.00 | 65 | 1017.5 |
| 20260502121209 | 53 | 315 | 1.0 | 1.0 | 0.00 | 0.00 | 0.00 | 65 | 1017.5 |
| 20260502120705 | 53 | 305 | 1.0 | 1.0 | 0.00 | 0.00 | 0.00 | 64 | 1017.5 |
| 20260502120202 | 53 | 290 | 0.0 | 1.0 | 0.00 | 0.00 | 0.00 | 64 | 1017.4 |
| 20260502115700 | 54 | 277 | 0.0 | 0.0 | 0.00 | 0.00 | 0.00 | 63 | 1017.2 |
| 20260502115156 | 54 | 291 | 0.0 | 1.0 | 0.00 | 0.00 | 0.00 | 62 | 1017.0 |
| 20260502114652 | 54 | 291 | 1.0 | 1.0 | 0.00 | 0.00 | 0.00 | 62 | 1017.1 |
| 20260502114149 | 54 | 280 | 1.0 | 1.0 | 0.00 | 0.00 | 0.00 | 62 | 1016.9 |
| 20260502113646 | 53 | 307 | 2.0 | 2.0 | 0.00 | 0.00 | 0.00 | 63 | 1016.9 |
| 20260502113145 | 53 | 289 | 0.0 | 1.0 | 0.00 | 0.00 | 0.00 | 62 | 1016.9 |
| 20260502112642 | 53 | 286 | 0.0 | 0.0 | 0.00 | 0.00 | 0.00 | 62 | 1016.9 |
| 20260502112139 | 53 | 279 | 0.0 | 0.0 | 0.00 | 0.00 | 0.00 | 63 | 1016.8 |
| 20260502111637 | 53 | 276 | 0.0 | 0.0 | 0.00 | 0.00 | 0.00 | 62 | 1016.7 |
| 20260502111134 | 53 | 306 | 1.0 | 1.0 | 0.00 | 0.00 | 0.00 | 62 | 1016.7 |
| 20260502110632 | 53 | 287 | 0.0 | 0.0 | 0.00 | 0.00 | 0.00 | 61 | 1016.7 |
| 20260502110129 | 53 | 279 | 0.0 | 0.0 | 0.00 | 0.00 | 0.00 | 61 | 1017.0 |
| 20260502105626 | 53 | 297 | 1.0 | 1.0 | 0.00 | 0.00 | 0.00 | 61 | 1016.6 |
| 20260502105123 | 53 | 320 | 5.0 | 6.0 | 0.00 | 0.00 | 0.00 | 60 | 1016.7 |
| 20260502104620 | 53 | 338 | 1.0 | 1.0 | 0.00 | 0.00 | 0.00 | 63 | 1016.7 |
| 20260502104118 | 54 | 320 | 1.0 | 2.0 | 0.00 | 0.00 | 0.00 | 61 | 1016.9 |
| 20260502103615 | 54 | 294 | 1.0 | 1.0 | 0.00 | 0.00 | 0.00 | 60 | 1017.0 |
| 20260502103113 | 54 | 285 | 0.0 | 1.0 | 0.00 | 0.00 | 0.00 | 59 | 1017.0 |
| 20260502102610 | 54 | 305 | 1.0 | 2.0 | 0.00 | 0.00 | 0.00 | 59 | 1016.7 |
| 20260502102106 | 54 | 286 | 1.0 | 1.0 | 0.00 | 0.00 | 0.00 | 59 | 1016.8 |
| 20260502101604 | 54 | 333 | 3.0 | 3.0 | 0.00 | 0.00 | 0.00 | 58 | 1016.6 |
| 20260502101102 | 54 | 280 | 1.0 | 2.0 | 0.00 | 0.00 | 0.00 | 57 | 1016.3 |
| 20260502100601 | 54 | 306 | 1.0 | 1.0 | 0.00 | 0.00 | 0.00 | 58 | 1016.4 |
| 20260502091033 | 55 | 338 | 4.0 | 6.0 | 0.00 | 0.00 | 0.00 | 53 | 1016.8 |
| 20260502090529 | 56 | 336 | 4.0 | 5.0 | 0.00 | 0.00 | 0.00 | 54 | 1016.6 |
| 20260502071419 | 57 | 284 | 2.0 | 2.0 | 0.00 | 0.00 | 0.00 | 51 | 1017.0 |
| 20260502070917 | 57 | 345 | 9.0 | 14.0 | 0.00 | 0.00 | 0.00 | 49 | 1016.6 |
| 20260502070414 | 57 | 348 | 4.0 | 5.0 | 0.00 | 0.00 | 0.00 | 51 | 1016.9 |
| 20260502065912 | 57 | 6 | 8.0 | 9.0 | 0.00 | 0.00 | 0.00 | 49 | 1017.2 |
| 20260502065411 | 57 | 1 | 5.0 | 6.0 | 0.00 | 0.00 | 0.00 | 51 | 1017.0 |
| 20260502064908 | 58 | 356 | 5.0 | 7.0 | 0.00 | 0.00 | 0.00 | 49 | 1017.0 |
| 20260502064406 | 58 | 342 | 4.0 | 6.0 | 0.00 | 0.00 | 0.00 | 48 | 1016.9 |
| 20260502063903 | 58 | 354 | 7.0 | 8.0 | 0.00 | 0.00 | 0.00 | 49 | 1017.0 |
| 20260502063401 | 58 | 359 | 6.0 | 6.0 | 0.00 | 0.00 | 0.00 | 49 | 1017.0 |
| 20260502062858 | 58 | 20 | 6.0 | 7.0 | 0.00 | 0.00 | 0.00 | 50 | 1017.1 |
| 20260502062355 | 58 | 345 | 6.0 | 7.0 | 0.00 | 0.00 | 0.00 | 49 | 1017.1 |
| 20260502061854 | 58 | 9 | 4.0 | 6.0 | 0.00 | 0.00 | 0.00 | 52 | 1017.1 |
| 20260502061351 | 58 | 351 | 6.0 | 8.0 | 0.00 | 0.00 | 0.00 | 49 | 1017.3 |
| 20260502060847 | 58 | 327 | 2.0 | 2.0 | 0.00 | 0.00 | 0.00 | 51 | 1017.4 |
| 20260502060343 | 58 | 359 | 6.0 | 7.0 | 0.00 | 0.00 | 0.00 | 49 | 1017.3 |
| 20260502055840 | 59 | 347 | 6.0 | 8.0 | 0.00 | 0.00 | 0.00 | 51 | 1017.3 |
| 20260502055338 | 59 | 2 | 8.0 | 9.0 | 0.00 | 0.00 | 0.00 | 49 | 1017.3 |
| 20260502054837 | 59 | 5 | 5.0 | 6.0 | 0.00 | 0.00 | 0.00 | 52 | 1017.1 |
| 20260502054334 | 58 | 334 | 3.0 | 3.0 | 0.00 | 0.00 | 0.00 | 54 | 1017.0 |
| 20260502053831 | 59 | 338 | 5.0 | 8.0 | 0.00 | 0.00 | 0.00 | 51 | 1017.0 |
| 20260502053328 | 59 | 349 | 6.0 | 7.0 | 0.00 | 0.00 | 0.00 | 53 | 1016.9 |
| 20260502052826 | 59 | 344 | 3.0 | 3.0 | 0.00 | 0.00 | 0.00 | 58 | 1016.9 |
| 20260502052324 | 59 | 353 | 2.0 | 2.0 | 0.00 | 0.00 | 0.00 | 57 | 1017.1 |
| 20260502051822 | 59 | 309 | 2.0 | 2.0 | 0.00 | 0.00 | 0.00 | 56 | 1017.2 |
| 20260502051320 | 59 | 4 | 3.0 | 5.0 | 0.00 | 0.00 | 0.00 | 58 | 1016.9 |
| 20260502050816 | 59 | 327 | 3.0 | 5.0 | 0.00 | 0.00 | 0.00 | 57 | 1016.8 |
| 20260502050313 | 59 | 16 | 6.0 | 7.0 | 0.00 | 0.00 | 0.00 | 60 | 1017.0 |
| 20260502045810 | 59 | 17 | 6.0 | 7.0 | 0.00 | 0.00 | 0.00 | 61 | 1016.7 |
| 20260502045306 | 59 | 354 | 4.0 | 5.0 | 0.00 | 0.00 | 0.00 | 62 | 1016.5 |
| 20260502044804 | 59 | 12 | 6.0 | 7.0 | 0.00 | 0.00 | 0.00 | 64 | 1016.6 |
| 20260502044259 | 60 | 333 | 3.0 | 3.0 | 0.00 | 0.00 | 0.00 | 65 | 1016.7 |
| 20260502043757 | 60 | 338 | 3.0 | 3.0 | 0.00 | 0.00 | 0.00 | 65 | 1016.7 |
| 20260502043254 | 59 | 342 | 4.0 | 6.0 | 0.00 | 0.00 | 0.00 | 67 | 1016.7 |
| 20260502042754 | 59 | 312 | 2.0 | 2.0 | 0.00 | 0.00 | 0.00 | 74 | 1016.9 |
| 20260502042251 | 59 | 280 | 0.0 | 0.0 | 0.00 | 0.00 | 0.00 | 73 | 1016.5 |
| 20260502041749 | 59 | 294 | 0.0 | 1.0 | 0.00 | 0.00 | 0.00 | 74 | 1016.9 |
| 20260502041246 | 59 | 284 | 0.0 | 1.0 | 0.00 | 0.00 | 0.00 | 74 | 1016.4 |
| 20260502040743 | 59 | 309 | 1.0 | 1.0 | 0.00 | 0.00 | 0.00 | 76 | 1016.6 |
| 20260502040240 | 59 | 298 | 1.0 | 1.0 | 0.00 | 0.00 | 0.00 | 75 | 1016.6 |
| 20260502035736 | 59 | 317 | 1.0 | 1.0 | 0.00 | 0.00 | 0.00 | 75 | 1016.5 |
| 20260502035233 | 59 | 285 | 0.0 | 0.0 | 0.00 | 0.00 | 0.00 | 74 | 1016.6 |
| 20260502034730 | 59 | 277 | 0.0 | 0.0 | 0.00 | 0.00 | 0.00 | 73 | 1016.6 |
| 20260502034228 | 59 | 281 | 1.0 | 1.0 | 0.00 | 0.00 | 0.00 | 73 | 1016.9 |
| 20260502033726 | 59 | 295 | 1.0 | 1.0 | 0.00 | 0.00 | 0.00 | 73 | 1016.7 |
| 20260502033224 | 60 | 279 | 0.0 | 0.0 | 0.00 | 0.00 | 0.00 | 73 | 1016.9 |
| 20260502032720 | 60 | 282 | 0.0 | 0.0 | 0.00 | 0.00 | 0.00 | 73 | 1016.8 |
| 20260502032216 | 60 | 282 | 0.0 | 0.0 | 0.00 | 0.00 | 0.00 | 72 | 1016.8 |
| 20260502031714 | 60 | 305 | 1.0 | 1.0 | 0.00 | 0.00 | 0.00 | 72 | 1017.0 |
| 20260502031212 | 60 | 291 | 0.0 | 1.0 | 0.00 | 0.00 | 0.00 | 72 | 1016.9 |
| 20260502030710 | 60 | 2 | 2.0 | 2.0 | 0.00 | 0.00 | 0.00 | 73 | 1017.0 |
| 20260502030208 | 60 | 276 | 1.0 | 1.0 | 0.00 | 0.00 | 0.00 | 74 | 1017.0 |
| 20260502025705 | 59 | 332 | 1.0 | 2.0 | 0.00 | 0.00 | 0.00 | 74 | 1017.2 |
| 20260502025203 | 59 | 253 | 0.0 | 1.0 | 0.00 | 0.00 | 0.00 | 74 | 1017.1 |
| 20260502024700 | 58 | 260 | 0.0 | 0.0 | 0.00 | 0.00 | 0.00 | 76 | 1017.1 |
| 20260502024158 | 58 | 260 | 0.0 | 0.0 | 0.00 | 0.00 | 0.00 | 78 | 1017.0 |
| 20260502023656 | 58 | 260 | 0.0 | 0.0 | 0.00 | 0.00 | 0.00 | 79 | 1016.9 |
| 20260502023153 | 58 | 255 | 0.0 | 0.0 | 0.00 | 0.00 | 0.00 | 78 | 1016.9 |
| 20260502022650 | 58 | 253 | 0.0 | 0.0 | 0.00 | 0.00 | 0.00 | 79 | 1016.7 |
| 20260502022147 | 58 | 254 | 0.0 | 0.0 | 0.00 | 0.00 | 0.00 | 79 | 1016.8 |
| 20260502021644 | 58 | 259 | 0.0 | 0.0 | 0.00 | 0.00 | 0.00 | 77 | 1016.7 |
| 20260502021141 | 58 | 254 | 0.0 | 0.0 | 0.00 | 0.00 | 0.00 | 78 | 1016.6 |
| 20260502020638 | 58 | 255 | 0.0 | 0.0 | 0.00 | 0.00 | 0.00 | 78 | 1016.6 |
| 20260502020135 | 58 | 257 | 0.0 | 0.0 | 0.00 | 0.00 | 0.00 | 78 | 1016.5 |
| 20260502015633 | 58 | 245 | 1.0 | 1.0 | 0.00 | 0.00 | 0.00 | 79 | 1016.6 |
| 20260502015129 | 58 | 261 | 0.0 | 0.0 | 0.00 | 0.00 | 0.00 | 79 | 1016.5 |
| 20260502014627 | 58 | 263 | 0.0 | 0.0 | 0.00 | 0.00 | 0.00 | 80 | 1016.4 |
| 20260502014124 | 58 | 259 | 0.0 | 0.0 | 0.00 | 0.00 | 0.00 | 82 | 1016.5 |
| 20260502013620 | 58 | 264 | 0.0 | 0.0 | 0.00 | 0.00 | 0.00 | 81 | 1016.3 |
| 20260502013115 | 58 | 268 | 0.0 | 0.0 | 0.00 | 0.00 | 0.00 | 80 | 1016.2 |
| 20260502012613 | 58 | 261 | 0.0 | 0.0 | 0.00 | 0.00 | 0.00 | 78 | 1016.4 |
| 20260502012111 | 58 | 261 | 0.0 | 0.0 | 0.00 | 0.00 | 0.00 | 76 | 1016.3 |
| 20260502011607 | 58 | 260 | 0.0 | 0.0 | 0.00 | 0.00 | 0.00 | 76 | 1016.3 |
| 20260502011103 | 59 | 260 | 0.0 | 0.0 | 0.00 | 0.00 | 0.00 | 79 | 1016.4 |
| 20260502010601 | 59 | 246 | 0.0 | 0.0 | 0.00 | 0.00 | 0.00 | 77 | 1016.3 |
| 20260502010057 | 59 | 269 | 0.0 | 0.0 | 0.00 | 0.00 | 0.00 | 77 | 1016.2 |
| 20260502005555 | 59 | 268 | 0.0 | 1.0 | 0.00 | 0.00 | 0.00 | 76 | 1016.0 |
| 20260502005053 | 59 | 264 | 0.0 | 0.0 | 0.00 | 0.00 | 0.00 | 76 | 1015.9 |
| 20260502004548 | 59 | 263 | 1.0 | 1.0 | 0.00 | 0.00 | 0.00 | 76 | 1016.2 |
| 20260502004045 | 59 | 267 | 1.0 | 1.0 | 0.00 | 0.00 | 0.00 | 79 | 1015.8 |
| 20260502003543 | 59 | 268 | 1.0 | 1.0 | 0.00 | 0.00 | 0.00 | 78 | 1015.9 |
| 20260502003040 | 59 | 266 | 1.0 | 1.0 | 0.00 | 0.00 | 0.00 | 75 | 1015.8 |
| 20260502002536 | 59 | 270 | 1.0 | 1.0 | 0.00 | 0.00 | 0.00 | 77 | 1015.8 |
| 20260502002033 | 60 | 268 | 1.0 | 1.0 | 0.00 | 0.00 | 0.00 | 77 | 1015.7 |
| 20260502001531 | 60 | 268 | 1.0 | 1.0 | 0.00 | 0.00 | 0.00 | 78 | 1015.4 |
| 20260502001028 | 60 | 266 | 0.0 | 1.0 | 0.00 | 0.00 | 0.00 | 76 | 1015.5 |
| 20260502000526 | 60 | 289 | 0.0 | 0.0 | 0.00 | 0.00 | 0.00 | 75 | 1015.8 |
| 20260502000023 | 60 | 266 | 0.0 | 0.0 | 0.00 | 0.00 | 0.00 | 74 | 1015.8 |
| 20260501235519 | 60 | 266 | 1.0 | 1.0 | 0.00 | 0.00 | 0.00 | 74 | 1015.6 |
| 20260501235014 | 61 | 265 | 1.0 | 1.0 | 0.00 | 0.00 | 0.00 | 74 | 1015.5 |
| 20260501234510 | 61 | 265 | 1.0 | 1.0 | 0.00 | 0.00 | 0.00 | 73 | 1015.5 |
| 20260501234009 | 61 | 268 | 0.0 | 0.0 | 0.00 | 0.00 | 0.00 | 73 | 1015.2 |
| 20260501233507 | 61 | 268 | 1.0 | 1.0 | 0.00 | 0.00 | 0.00 | 75 | 1015.4 |
| 20260501233003 | 61 | 266 | 1.0 | 1.0 | 0.00 | 0.00 | 0.00 | 75 | 1015.4 |
| 20260501232459 | 62 | 266 | 1.0 | 1.0 | 0.00 | 0.00 | 0.00 | 76 | 1015.7 |
| 20260501231956 | 62 | 266 | 0.0 | 0.0 | 0.00 | 0.00 | 0.00 | 73 | 1015.6 |
| 20260501231455 | 63 | 255 | 0.0 | 0.0 | 0.00 | 0.00 | 0.00 | 72 | 1015.3 |
| 20260501230953 | 63 | 254 | 0.0 | 0.0 | 0.00 | 0.00 | 0.00 | 72 | 1015.5 |
| 20260501230451 | 63 | 256 | 0.0 | 0.0 | 0.00 | 0.00 | 0.00 | 70 | 1015.7 |
| 20260501225948 | 64 | 257 | 0.0 | 0.0 | 0.00 | 0.00 | 0.00 | 71 | 1015.8 |
| 20260501225446 | 64 | 259 | 0.0 | 0.0 | 0.00 | 0.00 | 0.00 | 68 | 1015.8 |
| 20260501224941 | 64 | 259 | 0.0 | 0.0 | 0.00 | 0.00 | 0.00 | 68 | 1015.6 |
| 20260501224439 | 64 | 274 | 0.0 | 0.0 | 0.00 | 0.00 | 0.00 | 59 | 1015.5 |
| 20260501223936 | 64 | 286 | 0.0 | 0.0 | 0.00 | 0.00 | 0.00 | 55 | 1015.4 |
| 20260501223432 | 64 | 302 | 1.0 | 1.0 | 0.00 | 0.00 | 0.00 | 56 | 1015.2 |
| 20260501222928 | 64 | 303 | 1.0 | 2.0 | 0.00 | 0.00 | 0.00 | 56 | 1015.1 |
| 20260501222426 | 65 | 332 | 2.0 | 2.0 | 0.00 | 0.00 | 0.00 | 55 | 1015.1 |
| 20260501221921 | 65 | 293 | 1.0 | 1.0 | 0.00 | 0.00 | 0.00 | 55 | 1015.2 |
| 20260501221419 | 65 | 287 | 0.0 | 0.0 | 0.00 | 0.00 | 0.00 | 56 | 1015.5 |
| 20260501220917 | 64 | 292 | 2.0 | 2.0 | 0.00 | 0.00 | 0.00 | 57 | 1015.4 |
| 20260501220414 | 65 | 15 | 3.0 | 3.0 | 0.00 | 0.00 | 0.00 | 55 | 1015.0 |
| 20260501215910 | 64 | 13 | 4.0 | 6.0 | 0.00 | 0.00 | 0.00 | 56 | 1015.0 |
| 20260501215407 | 64 | 10 | 4.0 | 6.0 | 0.00 | 0.00 | 0.00 | 57 | 1015.0 |
| 20260501214902 | 65 | 350 | 5.0 | 6.0 | 0.00 | 0.00 | 0.00 | 55 | 1015.1 |
| 20260501214357 | 65 | 13 | 3.0 | 5.0 | 0.00 | 0.00 | 0.00 | 60 | 1015.1 |
| 20260501213853 | 65 | 297 | 2.0 | 2.0 | 0.00 | 0.00 | 0.00 | 56 | 1014.9 |
| 20260501213350 | 65 | 302 | 1.0 | 1.0 | 0.00 | 0.00 | 0.00 | 59 | 1015.0 |
| 20260501212846 | 64 | 353 | 4.0 | 6.0 | 0.00 | 0.00 | 0.00 | 57 | 1015.1 |
| 20260501212343 | 64 | 340 | 3.0 | 3.0 | 0.00 | 0.00 | 0.00 | 59 | 1015.0 |
| 20260501211840 | 64 | 354 | 4.0 | 5.0 | 0.00 | 0.00 | 0.00 | 59 | 1015.3 |
| 20260501211337 | 64 | 4 | 3.0 | 3.0 | 0.00 | 0.00 | 0.00 | 57 | 1015.3 |
| 20260501210834 | 65 | 329 | 1.0 | 1.0 | 0.00 | 0.00 | 0.00 | 56 | 1015.3 |
| 20260501210331 | 64 | 354 | 4.0 | 5.0 | 0.00 | 0.00 | 0.00 | 59 | 1015.6 |
| 20260501205827 | 65 | 354 | 3.0 | 3.0 | 0.00 | 0.00 | 0.00 | 60 | 1015.8 |
| 20260501205325 | 64 | 348 | 1.0 | 2.0 | 0.00 | 0.00 | 0.00 | 58 | 1015.7 |
| 20260501204821 | 64 | 41 | 5.0 | 7.0 | 0.00 | 0.00 | 0.00 | 60 | 1015.9 |
| 20260501204318 | 65 | 1 | 2.0 | 2.0 | 0.00 | 0.00 | 0.00 | 57 | 1016.0 |
| 20260501203814 | 66 | 312 | 0.0 | 0.0 | 0.00 | 0.00 | 0.00 | 54 | 1016.1 |
| 20260501203311 | 66 | 330 | 1.0 | 1.0 | 0.00 | 0.00 | 0.00 | 56 | 1016.4 |
| 20260501202808 | 65 | 324 | 1.0 | 2.0 | 0.00 | 0.00 | 0.00 | 59 | 1016.5 |
| 20260501202306 | 65 | 337 | 2.0 | 2.0 | 0.00 | 0.00 | 0.00 | 56 | 1016.5 |
| 20260501201802 | 65 | 271 | 3.0 | 3.0 | 0.00 | 0.00 | 0.00 | 56 | 1016.4 |
| 20260501201258 | 64 | 21 | 4.0 | 7.0 | 0.00 | 0.00 | 0.00 | 56 | 1016.7 |
| 20260501200755 | 65 | 11 | 6.0 | 8.0 | 0.00 | 0.00 | 0.00 | 55 | 1016.9 |
| 20260501200252 | 66 | 288 | 1.0 | 1.0 | 0.00 | 0.00 | 0.00 | 57 | 1016.7 |
| 20260501195750 | 65 | 288 | 1.0 | 1.0 | 0.00 | 0.00 | 0.00 | 56 | 1017.1 |
| 20260501195246 | 65 | 283 | 1.0 | 1.0 | 0.00 | 0.00 | 0.00 | 55 | 1017.1 |
| 20260501194742 | 64 | 348 | 3.0 | 3.0 | 0.00 | 0.00 | 0.00 | 55 | 1017.2 |
| 20260501194238 | 65 | 10 | 3.0 | 5.0 | 0.00 | 0.00 | 0.00 | 58 | 1017.4 |
| 20260501193735 | 66 | 314 | 1.0 | 2.0 | 0.00 | 0.00 | 0.00 | 56 | 1017.3 |
| 20260501193233 | 65 | 270 | 2.0 | 2.0 | 0.00 | 0.00 | 0.00 | 55 | 1017.5 |
| 20260501192730 | 65 | 277 | 2.0 | 2.0 | 0.00 | 0.00 | 0.00 | 57 | 1017.3 |
| 20260501192227 | 64 | 340 | 6.0 | 8.0 | 0.00 | 0.00 | 0.00 | 55 | 1017.2 |
| 20260501191724 | 64 | 353 | 6.0 | 8.0 | 0.00 | 0.00 | 0.00 | 57 | 1017.4 |
| 20260501191221 | 64 | 347 | 2.0 | 2.0 | 0.00 | 0.00 | 0.00 | 56 | 1017.4 |
| 20260501190718 | 64 | 359 | 4.0 | 5.0 | 0.00 | 0.00 | 0.00 | 54 | 1017.3 |
| 20260501190213 | 65 | 278 | 1.0 | 2.0 | 0.00 | 0.00 | 0.00 | 54 | 1017.1 |
| 20260501185710 | 65 | 359 | 7.0 | 7.0 | 0.00 | 0.00 | 0.00 | 58 | 1017.3 |
| 20260501185205 | 64 | 16 | 5.0 | 7.0 | 0.00 | 0.00 | 0.00 | 59 | 1017.2 |
| 20260501184656 | 64 | 287 | 0.0 | 0.0 | 0.00 | 0.00 | 0.00 | 59 | 1017.1 |
| 20260501184157 | 64 | 66 | 1.0 | 1.0 | 0.00 | 0.00 | 0.00 | 61 | 1017.3 |
| 20260501183653 | 63 | 19 | 6.0 | 7.0 | 0.00 | 0.00 | 0.00 | 61 | 1017.1 |
| 20260501183150 | 63 | 28 | 3.0 | 3.0 | 0.00 | 0.00 | 0.00 | 62 | 1017.1 |
| 20260501182647 | 63 | 55 | 3.0 | 3.0 | 0.00 | 0.00 | 0.00 | 60 | 1017.0 |
| 20260501182143 | 63 | 357 | 5.0 | 6.0 | 0.00 | 0.00 | 0.00 | 58 | 1017.2 |
| 20260501181640 | 63 | 359 | 6.0 | 7.0 | 0.00 | 0.00 | 0.00 | 58 | 1017.3 |
| 20260501181137 | 63 | 351 | 5.0 | 7.0 | 0.00 | 0.00 | 0.00 | 59 | 1017.3 |
| 20260501180636 | 63 | 3 | 5.0 | 6.0 | 0.00 | 0.00 | 0.00 | 57 | 1017.3 |
| 20260501180131 | 63 | 8 | 6.0 | 8.0 | 0.00 | 0.00 | 0.00 | 60 | 1017.2 |
| 20260501175628 | 63 | 355 | 7.0 | 8.0 | 0.00 | 0.00 | 0.00 | 59 | 1017.3 |
| 20260501175126 | 64 | 287 | 1.0 | 2.0 | 0.00 | 0.00 | 0.00 | 59 | 1017.5 |
| 20260501174622 | 64 | 279 | 0.0 | 1.0 | 0.00 | 0.00 | 0.00 | 57 | 1017.2 |
| 20260501174120 | 64 | 15 | 4.0 | 5.0 | 0.00 | 0.00 | 0.00 | 60 | 1017.4 |
| 20260501173617 | 63 | 288 | 2.0 | 2.0 | 0.00 | 0.00 | 0.00 | 65 | 1017.6 |
| 20260501173114 | 62 | 7 | 6.0 | 7.0 | 0.00 | 0.00 | 0.00 | 64 | 1017.6 |
| 20260501172610 | 63 | 19 | 3.0 | 3.0 | 0.00 | 0.00 | 0.00 | 60 | 1017.7 |
| 20260501172105 | 62 | 334 | 2.0 | 2.0 | 0.00 | 0.00 | 0.00 | 61 | 1017.9 |
| 20260501171601 | 62 | 1 | 2.0 | 2.0 | 0.00 | 0.00 | 0.00 | 60 | 1017.9 |
| 20260501171058 | 62 | 9 | 1.0 | 1.0 | 0.00 | 0.00 | 0.00 | 65 | 1017.9 |
| 20260501170555 | 61 | 48 | 1.0 | 2.0 | 0.00 | 0.00 | 0.00 | 65 | 1017.8 |
| 20260501170052 | 62 | 13 | 2.0 | 2.0 | 0.00 | 0.00 | 0.00 | 64 | 1017.8 |
| 20260501165549 | 61 | 357 | 2.0 | 2.0 | 0.00 | 0.00 | 0.00 | 67 | 1017.8 |
| 20260501165047 | 61 | 37 | 1.0 | 1.0 | 0.00 | 0.00 | 0.00 | 68 | 1017.8 |
| 20260501164544 | 61 | 23 | 2.0 | 2.0 | 0.00 | 0.00 | 0.00 | 69 | 1017.8 |
| 20260501164041 | 61 | 45 | 0.0 | 1.0 | 0.00 | 0.00 | 0.00 | 69 | 1017.8 |
| 20260501163537 | 61 | 27 | 1.0 | 2.0 | 0.00 | 0.00 | 0.00 | 68 | 1018.0 |
| 20260501163034 | 61 | 69 | 3.0 | 3.0 | 0.00 | 0.00 | 0.00 | 67 | 1017.7 |
| 20260501162531 | 60 | 31 | 2.0 | 2.0 | 0.00 | 0.00 | 0.00 | 70 | 1017.7 |
| 20260501162028 | 60 | 43 | 3.0 | 3.0 | 0.00 | 0.00 | 0.00 | 67 | 1017.7 |
| 20260501161525 | 60 | 341 | 0.0 | 0.0 | 0.00 | 0.00 | 0.00 | 68 | 1017.5 |
| 20260501161021 | 60 | 17 | 4.0 | 5.0 | 0.00 | 0.00 | 0.00 | 69 | 1017.8 |
| 20260501160519 | 60 | 0 | 3.0 | 3.0 | 0.00 | 0.00 | 0.00 | 69 | 1017.8 |
| 20260501160015 | 60 | 337 | 1.0 | 1.0 | 0.00 | 0.00 | 0.00 | 70 | 1017.8 |
| 20260501155512 | 60 | 347 | 2.0 | 2.0 | 0.00 | 0.00 | 0.00 | 68 | 1017.9 |
| 20260501155009 | 59 | 342 | 2.0 | 2.0 | 0.00 | 0.00 | 0.00 | 68 | 1018.0 |
| 20260501154507 | 60 | 275 | 1.0 | 1.0 | 0.00 | 0.00 | 0.00 | 70 | 1018.0 |
| 20260501154003 | 60 | 335 | 2.0 | 2.0 | 0.00 | 0.00 | 0.00 | 69 | 1018.4 |
| 20260501153501 | 60 | 313 | 1.0 | 2.0 | 0.00 | 0.00 | 0.00 | 69 | 1018.5 |
| 20260501152956 | 59 | 340 | 3.0 | 3.0 | 0.00 | 0.00 | 0.00 | 69 | 1018.4 |
| 20260501152454 | 59 | 321 | 1.0 | 1.0 | 0.00 | 0.00 | 0.00 | 71 | 1018.4 |
| 20260501151951 | 59 | 334 | 2.0 | 2.0 | 0.00 | 0.00 | 0.00 | 71 | 1018.3 |
| 20260501151448 | 59 | 296 | 1.0 | 1.0 | 0.00 | 0.00 | 0.00 | 71 | 1018.3 |
| 20260501150944 | 59 | 348 | 2.0 | 2.0 | 0.00 | 0.00 | 0.00 | 70 | 1018.2 |
| 20260501150440 | 58 | 15 | 3.0 | 3.0 | 0.00 | 0.00 | 0.00 | 71 | 1017.9 |
| 20260501145937 | 58 | 351 | 3.0 | 3.0 | 0.00 | 0.00 | 0.00 | 69 | 1017.8 |
| 20260501145433 | 58 | 5 | 4.0 | 5.0 | 0.00 | 0.00 | 0.00 | 69 | 1018.0 |
| 20260501144931 | 58 | 358 | 3.0 | 3.0 | 0.00 | 0.00 | 0.00 | 70 | 1018.2 |
| 20260501144426 | 58 | 14 | 4.0 | 5.0 | 0.00 | 0.00 | 0.00 | 68 | 1018.0 |
| 20260501143922 | 59 | 337 | 3.0 | 5.0 | 0.00 | 0.00 | 0.00 | 68 | 1018.2 |
| 20260501143419 | 58 | 275 | 1.0 | 1.0 | 0.00 | 0.00 | 0.00 | 67 | 1018.2 |
| 20260501142915 | 58 | 337 | 2.0 | 2.0 | 0.00 | 0.00 | 0.00 | 67 | 1017.8 |